Regional Weather Roundup
Issued by NWS Mt. Holly, NJ

Home | Current Version | Previous Version | Text Only | Print | Product List | Glossary On
Versions: 1 2 3 4 5 6 7 8 9 10 11 12 13 14 15 16 17 18 19 20 21 22 23 24 25 26 27 28
000
ASUS41 KPHI 310612
RWRPHI

REGIONAL WEATHER ROUNDUP
NATIONAL WEATHER SERVICE MOUNT HOLLY NJ
200 AM EDT TUE MAY 31 2016

NOTE:  "FAIR" INDICATES FEW OR NO CLOUDS BELOW 12,000 FEET WITH NO
SIGNIFICANT WEATHER AND/OR OBSTRUCTIONS TO VISIBILITY.

 * = STATION DOES NOT REPORT PRECIPITATION (E.G. RAIN, SNOW, ETC.)
        OR FOG.

NJZ015>026-310700-
SOUTHERN NEW JERSEY

CITY           SKY/WX    TMP DP  RH WIND       PRES   REMARKS
POMONA         CLOUDY    68  68 100 S5        29.96S VSB 1/2
6HR MIN TEMP:  68; 6HR MAX TEMP:  69; 6HR PCP:  0.01;

WILDWOOD*      CLOUDY   N/A N/A N/A CALM      29.97S
MILLVILLE      CLOUDY    69  67  93 S3        29.95F
MOUNT HOLLY    CLOUDY    69  67  93 CALM      29.95S
TRENTON        CLOUDY    71  68  90 S5        29.94S
6HR MIN TEMP:  70; 6HR MAX TEMP:  74;


$$
NJZ001>014-310700-
NORTHERN NEW JERSEY

CITY           SKY/WX    TMP DP  RH WIND       PRES   REMARKS
SUSSEX         PTCLDY    64  62  93 CALM      29.95S FOG
ANDOVER*         N/A     68  67  96 CALM      29.95F
MORRISTOWN     PTCLDY    70  66  88 CALM      29.94F
NEWARK         CLOUDY    71  68  90 SW8       29.93F
TETERBORO      CLOUDY    73  66  78 SW5       29.92S
CALDWELL       MOCLDY    72  67  84 SW3       29.94S
SOMERVILLE     CLOUDY    70  67  90 CALM      29.92F
ALLAIRE*       CLOUDY    68  67  96 SW7       29.96F
TOMS RIVER*    CLOUDY    68  64  88 S5        29.95F

$$
PAZ043-044-047-054-055-060>062-066>071-310700-
EASTERN PENNSYLVANIA

CITY           SKY/WX    TMP DP  RH WIND       PRES   REMARKS
PHILADELPHIA   CLOUDY    72  67  84 SW9       29.95S
6HR MIN TEMP:  71; 6HR MAX TEMP:  73;

NORTH PHILA    CLOUDY    73  68  84 W6        29.96S
BLUE BELL*     CLOUDY    70  68  94 CALM      29.94F
DOYLESTOWN     PTCLDY    70  67  90 SW3       29.94F
QUAKERTOWN*    PTCLDY    68  68 100 CALM      29.96F
PERKASIE*      FAIR      68  68 100 CALM      29.96F
POTTSTOWN      CLOUDY    71  68  90 SW6       29.96F
LANCASTER      CLOUDY    66  65  96 SE5       29.96S
COATESVILLE    CLOUDY    70  68  94 CALM      29.98F
READING        PTCLDY    67  64  90 CALM      29.95S
6HR MIN TEMP:  67; 6HR MAX TEMP:  77; 6HR PCP:  0.04;

ALLENTOWN      MOCLDY    69  64  84 W3        29.95F
6HR MIN TEMP:  68; 6HR MAX TEMP:  75;

MOUNT POCONO   CLOUDY    61  59  93 NW3       29.99F
6HR MIN TEMP:  60; 6HR MAX TEMP:  64;

HAZLETON       FOG       59  59 100 CALM      30.02S VSB 1/2
LEHIGHTON      FOG       64  64 100 CALM      29.97S VSB 1/2
WILKES BARRE   CLOUDY    62  60  93 CALM      29.97S

$$
DEZALL-MDZ008-012-015-019-020-310700-
DELAWARE AND EASTERN MARYLAND

CITY           SKY/WX    TMP DP  RH WIND       PRES   REMARKS
WILMINGTON     CLOUDY    71  68  90 SW5       29.95F
6HR MIN TEMP:  71; 6HR MAX TEMP:  73; 6HR PCP: TRACE;

GEORGETOWN     CLOUDY    67  66  97 CALM      29.97F
6HR MIN TEMP:  66; 6HR MAX TEMP:  70; 6HR PCP:  0.01;

EASTON         CLOUDY    69  69 100 CALM      29.99F
PATUXENT       PTCLDY    66  64  93 CALM      29.95F
OCEAN CITY     CLOUDY    67  66  97 CALM      29.96F FOG
WALLOPS ISLAND CLOUDY    68  67  96 NW6       29.96F
CAMBRIDGE        N/A     64  64 100 CALM      29.96R
SALISBURY      MOCLDY    67  66  97 SE3       29.96F

$$
PAZ001-021-NYZ056-072-MDZ011-DCZ001-310700-
OTHER NEARBY LOCATIONS

CITY           SKY/WX    TMP DP  RH WIND       PRES   REMARKS
HARRISBURG     CLOUDY    68  65  90 CALM      29.95S
STATE COLLEGE  CLEAR     64  60  87 CALM      29.99F
WILLIAMSPORT   PTCLDY    64  61  90 CALM      29.96F
BINGHAMTON     CLEAR     62  58  86 N7        29.99S
NEW YORK CITY  CLOUDY    73  66  78 VRB3      29.96F
BALTIMORE      PTCLDY    69  67  93 SW6       29.95F
WASHINGTON DC  CLOUDY    71  67  87 S3        29.97S

$$




USA.gov is the U.S. government's official web portal to all federal, state and local government web resources and services.